Location: Newark
(30.1000°N, 109.4667°E)
Time: 17:01:32
(UTC+00:00)

SR - Pass Details

Date: 22 February 2020
Orbit: 578 x 878 km, 66.7° (Epoch: 05 April)

Event Time Altitude Azimuth Distance (km) Brightness Sun altitude
Rises 07:44:16 0° 212° (SSW) 3,399 ? 32.8°
Reaches altitude 10° 07:46:44 10° 216° (SW) 2,489 ? 32.3°
Maximum altitude 07:52:29 62° 296° (WNW) 976 ? 31.3°
Drops below altitude 10° 07:58:20 10° 17° (NNE) 2,519 ? 30.3°
Sets 08:00:50 0° 21° (NNE) 3,443 ? 29.9°
